Regional Weather Roundup
Issued by NWS

Home | Current Version | Previous Version | Text Only | Print | Product List | Glossary Off
Versions: 1 2 3 4 5 6 7 8 9 10 11 12 13 14 15 16 17 18 19 20 21 22 23 24 25 26 27 28 29 30 31 32 33 34 35 36 37 38 39 40 41 42 43 44 45 46 47 48 49 50

000
ASUS43 KDMX 021204
RWRIA

WEATHER ROUNDUP FOR IOWA
NATIONAL WEATHER SERVICE DES MOINES IA
  ISSUED BY NWS QUAD CITIES IA IL
600 AM CST MON MAR 02 2015

NOTE: "FAIR" INDICATES FEW OR NO CLOUDS BELOW 12,000 FEET WITH NO
SIGNIFICANT WEATHER AND/OR OBSTRUCTIONS TO VISIBILITY.

* - THESE STATIONS ARE NOT NWS STATIONS...THUS NOT UNDER NWS
QUALITY CONTROL.  THEY ALSO DO NOT REPORT WEATHER SUCH
AS PRECIPITATION OR FOG.

IAZ001>003-012>014-020>022-031>034-043>046-021300-
   NORTHWEST IOWA

CITY           SKY/WX    TMP DP  RH WIND       PRES   REMARKS
CARROLL *      MOCLDY     9   7  92 CALM      30.49S
CHEROKEE *     MOSUNNY    5   3  92 CALM      30.48S
6HR MIN TEMP:   3; 6HR MAX TEMP:  17;

DENNISON *     PTCLDY    12  10  92 CALM      30.46F
LE MARS *      PTCLDY     7   5  92 CALM      30.48F
ORANGE CITY *  PTCLDY    12  10  92 S3        30.45S
SHELDON *      MOCLDY     1  -2  85 CALM      30.45R
SIOUX CITY     PTCLDY    10   6  84 S5        30.48S WCI   2
6HR MIN TEMP:  10; 6HR MAX TEMP:  20;

SPENCER        MOCLDY     3  -2  79 CALM      30.46S
6HR MIN TEMP:   1; 6HR MAX TEMP:  12;

STORM LAKE *   PTCLDY    14  12  92 CALM      30.47S
$$

IAZ055>058-069>071-079>083-090>094-021300-
   SOUTHWEST IOWA

CITY           SKY/WX    TMP DP  RH WIND       PRES   REMARKS
ATLANTIC *     PTCLDY    12  10  92 CALM      30.48F
AUDUBON *      PTCLDY     9   7  92 CALM      30.48F
CLARINDA *     PTCLDY    19  16  86 CALM      30.51R
COUNCIL BLFS * CLEAR     21  16  79 E8        30.46S WCI  12
CRESTON *      PTCLDY    18  12  79 NE9       30.48S WCI   6
HARLAN *       PTCLDY    14  14 100 CALM      30.51F
LAMONI         PTCLDY    21  15  78 NE5       30.48S WCI  15
6HR MIN TEMP:  21; 6HR MAX TEMP:  26;

RED OAK *      PTCLDY    19  16  86 N5        30.49S WCI  13
SHENANDOAH *   MOCLDY    21  18  86 NE6       30.49S WCI  14
$$

IAZ047>049-059>061-072>074-084-021300-
   CENTRAL IOWA

CITY           SKY/WX    TMP DP  RH WIND       PRES   REMARKS
AMES           PTCLDY     8   4  83 W6        30.51R WCI  -2
6HR MIN TEMP:   8; 6HR MAX TEMP:  21;

ANKENY *       CLEAR     12  10  92 CALM      30.52R
BOONE *        PTCLDY    12  10  92 W5        30.48R WCI   4
CHARITON *     PTCLDY    19  14  79 CALM      30.50S
DES MOINES     PTCLDY    19  12  74 CALM      30.51S
6HR MIN TEMP:  18; 6HR MAX TEMP:  22;

GRINNELL *     PTSUNNY   12  10  92 W3        30.51R
6HR MIN TEMP:  10; 6HR MAX TEMP:  17;

KNOXVILLE *    PTCLDY    18  12  79 CALM      30.50S
MARSHALLTOWN   PTCLDY     7   3  84 SW3       30.50R
6HR MIN TEMP:   5; 6HR MAX TEMP:  19;

NEWTON *       PTCLDY    16  12  86 NW3       30.51S
PELLA *        PTCLDY    15  14  94 CALM      30.53S
6HR MIN TEMP:  14; 6HR MAX TEMP:  22;

PERRY *          N/A     13  11  94 W3        30.51R
6HR MIN TEMP:  11; 6HR MAX TEMP:  17;

$$

IAZ004>006-015-016-023>025-035-036-021300-
   NORTH CENTRAL IOWA

CITY           SKY/WX    TMP DP  RH WIND       PRES   REMARKS
ALGONA *       PTCLDY     5   3  92 CALM      30.48S
CLARION *      PTCLDY     5   3  92 CALM      30.49R
ESTHERVILLE    PTCLDY     4   1  88 NW5       30.45S WCI  -5
6HR MIN TEMP:   3; 6HR MAX TEMP:  12;

FORT DODGE *   MOCLDY     3  -4  72 CALM      30.50R
6HR MIN TEMP:   1; 6HR MAX TEMP:  18;

MASON CITY     FAIR       0  -1  96 W6        30.48R WCI -12
6HR MIN TEMP:   0; 6HR MAX TEMP:  17;

FOREST CITY *  LGT SNOW  -2  -8  78 CALM      30.46R
WEBSTER CITY * MOCLDY     9   9 100 W5        30.48R WCI   0
IOWA FALLS *   FAIR       2  -1  85 CALM      30.49S
6HR MIN TEMP:   1; 6HR MAX TEMP:  13;

$$

IAZ007>011-017>019-026>030-037>042-050>054-066-021300-
   NORTHEAST IOWA

CITY           SKY/WX    TMP DP  RH WIND       PRES   REMARKS
CEDAR RAPIDS   PTCLDY     6   4  91 W9        30.50R WCI  -8
6HR MIN TEMP:   5; 6HR MAX TEMP:  15;

CHARLES CITY * PTCLDY     3   0  85 W5        30.48R WCI  -6
CLINTON *      PTCLDY     3   1  92 W8        30.52R WCI -10
6HR MIN TEMP:   3; 6HR MAX TEMP:   9;

DECORAH *      MOCLDY     9   5  85 W3        30.45R
DUBUQUE        PTCLDY     5   3  91 NW5       30.45R WCI  -4
6HR MIN TEMP:   2; 6HR MAX TEMP:  14;

MONTICELLO *   PTCLDY     1  -2  85 CALM      30.50R
OELWEIN *      PTCLDY     1  -2  85 W8        30.48R HAZE    WCI -12
WATERLOO       MOCLDY     2   1  96 CALM      30.50R
6HR MIN TEMP:   0; 6HR MAX TEMP:  17;

$$

IAZ064-065-067-068-078-021300-
   EAST CENTRAL IOWA

CITY           SKY/WX    TMP DP  RH WIND       PRES   REMARKS
DAVENPORT      PTCLDY     5   1  83 W7        30.51R WCI  -7
6HR MIN TEMP:   4; 6HR MAX TEMP:  10;

IOWA CITY      PTCLDY     9   6  88 CALM      30.54R
6HR MIN TEMP:   7; 6HR MAX TEMP:  16;

MT. PLEASANT * CLEAR     15  11  83 NW7       30.52R WCI   5
6HR MIN TEMP:  14; 6HR MAX TEMP:  19;

MUSCATINE *    PTCLDY    16  12  86 W5        30.54R WCI   9
QUAD CITIES    PTCLDY     5   1  83 CALM      30.52R
6HR MIN TEMP:   3; 6HR MAX TEMP:  14;

$$

IAZ062-063-075>077-085>089-095>099-021300-
   SOUTHEAST IOWA

CITY           SKY/WX    TMP DP  RH WIND       PRES   REMARKS
BURLINGTON     PTCLDY    18  12  77 N6        30.51R WCI  10
6HR MIN TEMP:  13; 6HR MAX TEMP:  21;

FAIRFIELD *    PTCLDY    12   7  79 N7        30.52R WCI   2
FORT MADISON * PTCLDY    16  12  86 CALM      30.52S
KEOKUK *       MOCLDY    19  16  86 CALM      30.52R
OSKALOOSA *    FAIR      15  12  85 N5        30.51S WCI   8
6HR MIN TEMP:  14; 6HR MAX TEMP:  20;

CENTERVILLE *  FAIR      19  16  86 N5        30.51S WCI  13
OTTUMWA        PTCLDY    13   9  84 NW5       30.50S WCI   5
6HR MIN TEMP:  13; 6HR MAX TEMP:  20;

WASHINGTON *   CLEAR     16  14  93 NW8       30.53R WCI   5
$$

ABBREVIATIONS USED IN REMARKS
   TC - TEMPERATURES IN CELSIUS
  WCI - WIND CHILL INDEX
   HX - HEAT INDEX
  VSB - VISIBILITY
$$



USA.gov is the U.S. government's official web portal to all federal, state and local government web resources and services.